Location: Harmony
(28.2000°N, 81.1500°W)
Time: 23:24:07
(UTC-05:00)

Gblst 52 Del rocket - Pass Details

Date: 18 December 2017
Orbit: 805 x 1365 km, 51.5° (Epoch: 21 January)

Event Time Altitude Azimuth Distance (km) Brightness Sun altitude
Rises 19:34:43 0° 319° (NW) 3,406 7.7 -26.2°
Reaches altitude 10° 19:37:07 10° 322° (NW) 2,517 6.9 -26.7°
Enters shadow 19:42:40 70° 21° (NNE) 998 4.3 -27.9°
